Tiempo cada hora Abay

Hoy, 28 Octubre, Miércoles

Tiempo Temperatura Precipitaciones Viento Presión Humedad
00:00 +2°C° 0 mm 2 mps 663 mmHg 64%
01:00 +2°C° 0.3 mm 2 mps 663 mmHg 68%
02:00 +2°C° 0.3 mm 2 mps 663 mmHg 72%
03:00 +1°C° 0.3 mm 2 mps 664 mmHg 76%
04:00 0°C° 1.8 mm 3 mps 664 mmHg 83%
05:00 0°C° 1.8 mm 3 mps 664 mmHg 90%
06:00 0°C° 1.8 mm 4 mps 664 mmHg 96%
07:00 0°C° 2.6 mm 4 mps 665 mmHg 96%
08:00 0°C° 2.6 mm 4 mps 665 mmHg 96%
09:00 0°C° 2.6 mm 5 mps 666 mmHg 96%
10:00 -1°C° 0.7 mm 5 mps 666 mmHg 92%
11:00 -1°C° 0.7 mm 5 mps 666 mmHg 88%
12:00 -3°C° 0.7 mm 6 mps 667 mmHg 84%
13:00 -2°C° 0.2 mm 5 mps 667 mmHg 83%
14:00 -4°C° 0.2 mm 5 mps 668 mmHg 83%
15:00 -3°C° 0.2 mm 4 mps 668 mmHg 83%
16:00 -5°C° 0.1 mm 4 mps 668 mmHg 85%
17:00 -6°C° 0.1 mm 3 mps 669 mmHg 88%
18:00 -7°C° 0.1 mm 3 mps 669 mmHg 91%
19:00 -7°C° 0.1 mm 3 mps 669 mmHg 91%
20:00 -7°C° 0.1 mm 3 mps 670 mmHg 92%
21:00 -7°C° 0.1 mm 3 mps 670 mmHg 92%
22:00 -7°C° 0.1 mm 3 mps 670 mmHg 92%
23:00 -7°C° 0.1 mm 3 mps 671 mmHg 93%

Mañana, 29 Octubre, Jueves

Tiempo Temperatura Precipitaciones Viento Presión Humedad
00:00 -7°C° 0.1 mm 3 mps 671 mmHg 93%
01:00 -6°C° 0.1 mm 2 mps 671 mmHg 93%
02:00 -6°C° 0.1 mm 2 mps 671 mmHg 93%
03:00 -6°C° 0.1 mm 2 mps 671 mmHg 94%
04:00 -6°C° 0.1 mm 2 mps 672 mmHg 94%
05:00 -6°C° 0.1 mm 2 mps 672 mmHg 94%
06:00 -6°C° 0.1 mm 2 mps 672 mmHg 94%
07:00 -5°C° 0.1 mm 2 mps 673 mmHg 93%
08:00 -5°C° 0.1 mm 2 mps 673 mmHg 91%
09:00 -5°C° 0.1 mm 3 mps 674 mmHg 90%
10:00 -5°C° 0.1 mm 3 mps 674 mmHg 87%
11:00 -4°C° 0.1 mm 3 mps 674 mmHg 83%
12:00 -4°C° 0.1 mm 4 mps 675 mmHg 79%
13:00 -4°C° 0.1 mm 3 mps 675 mmHg 80%
14:00 -4°C° 0.1 mm 3 mps 675 mmHg 81%
15:00 -5°C° 0.1 mm 3 mps 675 mmHg 82%
16:00 -5°C° 0.1 mm 2 mps 675 mmHg 86%
17:00 -6°C° 0.1 mm 2 mps 675 mmHg 89%
18:00 -8°C° 0.1 mm 2 mps 676 mmHg 93%
19:00 -8°C° 0 mm 2 mps 676 mmHg 93%
20:00 -9°C° 0 mm 2 mps 676 mmHg 93%
21:00 -10°C° 0 mm 2 mps 676 mmHg 93%
22:00 -10°C° 0 mm 2 mps 677 mmHg 93%
23:00 -10°C° 0 mm 2 mps 677 mmHg 93%

Pasado mañana, 30 Octubre, Viernes

Tiempo Temperatura Precipitaciones Viento Presión Humedad
00:00 -10°C° 0 mm 2 mps 677 mmHg 92%
01:00 -10°C° 0 mm 2 mps 677 mmHg 92%
02:00 -10°C° 0 mm 3 mps 677 mmHg 91%
03:00 -10°C° 0 mm 3 mps 677 mmHg 90%
04:00 -10°C° 0.1 mm 3 mps 676 mmHg 91%
05:00 -9°C° 0.1 mm 3 mps 676 mmHg 91%
06:00 -9°C° 0.1 mm 3 mps 676 mmHg 91%
07:00 -8°C° 0.1 mm 3 mps 676 mmHg 91%
08:00 -8°C° 0.1 mm 3 mps 676 mmHg 90%
09:00 -7°C° 0.1 mm 3 mps 676 mmHg 90%
10:00 -7°C° 0.1 mm 4 mps 676 mmHg 87%
11:00 -5°C° 0.1 mm 4 mps 675 mmHg 85%
12:00 -5°C° 0.1 mm 4 mps 675 mmHg 82%
13:00 -4°C° 0 mm 4 mps 675 mmHg 83%
14:00 -4°C° 0 mm 4 mps 675 mmHg 83%
15:00 -4°C° 0 mm 4 mps 675 mmHg 83%
16:00 -5°C° 0.1 mm 3 mps 675 mmHg 86%
17:00 -6°C° 0.1 mm 3 mps 675 mmHg 89%
18:00 -6°C° 0.1 mm 2 mps 676 mmHg 92%
19:00 -6°C° 0.1 mm 2 mps 676 mmHg 93%
20:00 -6°C° 0.1 mm 2 mps 676 mmHg 93%
21:00 -6°C° 0.1 mm 1 mps 676 mmHg 94%
22:00 -6°C° 0 mm 1 mps 677 mmHg 94%
23:00 -7°C° 0 mm 1 mps 677 mmHg 94%

31 Octubre, Sábado

Tiempo Temperatura Precipitaciones Viento Presión Humedad
00:00 -7°C° 0 mm 1 mps 677 mmHg 94%
01:00 -7°C° 0 mm 1 mps 677 mmHg 94%
02:00 -8°C° 0 mm 1 mps 677 mmHg 94%
03:00 -8°C° 0 mm 1 mps 677 mmHg 94%
04:00 -8°C° 0 mm 1 mps 677 mmHg 94%
05:00 -9°C° 0 mm 1 mps 677 mmHg 93%
06:00 -9°C° 0 mm 1 mps 678 mmHg 93%
07:00 -8°C° 0 mm 1 mps 678 mmHg 92%
08:00 -7°C° 0 mm 1 mps 678 mmHg 91%
09:00 -6°C° 0 mm 0 mps 679 mmHg 90%
10:00 -5°C° 0 mm 0 mps 679 mmHg 88%
11:00 -3°C° 0 mm 0 mps 679 mmHg 86%
12:00 -2°C° 0 mm 0 mps 679 mmHg 83%
13:00 -2°C° 0 mm 0 mps 679 mmHg 83%
14:00 -1°C° 0 mm 0 mps 679 mmHg 83%
15:00 -1°C° 0 mm 0 mps 679 mmHg 83%
16:00 -3°C° 0 mm 0 mps 678 mmHg 86%
17:00 -5°C° 0 mm 0 mps 678 mmHg 89%
18:00 -6°C° 0 mm 0 mps 678 mmHg 92%
19:00 -7°C° 0 mm 0 mps 678 mmHg 92%
20:00 -7°C° 0 mm 0 mps 678 mmHg 91%
21:00 -7°C° 0 mm 0 mps 678 mmHg 91%
22:00 -8°C° 0 mm 0 mps 677 mmHg 90%
23:00 -8°C° 0 mm 0 mps 677 mmHg 89%

1 Noviembre, Domingo

Tiempo Temperatura Precipitaciones Viento Presión Humedad
00:00 -8°C° 0 mm 0 mps 677 mmHg 88%
01:00 -8°C° 0 mm 0 mps 677 mmHg 87%
02:00 -8°C° 0 mm 0 mps 677 mmHg 86%
03:00 -8°C° 0 mm 0 mps 677 mmHg 86%
04:00 -8°C° 0 mm 0 mps 677 mmHg 85%
05:00 -8°C° 0 mm 0 mps 677 mmHg 85%
06:00 -9°C° 0 mm 0 mps 676 mmHg 84%
07:00 -7°C° 0 mm 0 mps 677 mmHg 84%
08:00 -6°C° 0 mm 0 mps 677 mmHg 83%
09:00 -5°C° 0 mm 0 mps 677 mmHg 82%
10:00 -3°C° 0 mm 0 mps 677 mmHg 80%
11:00 -1°C° 0 mm 0 mps 677 mmHg 78%
12:00 0°C° 0 mm 0 mps 677 mmHg 76%
13:00 +1°C° 0 mm 0 mps 677 mmHg 78%
14:00 +1°C° 0 mm 0 mps 677 mmHg 79%
15:00 +1°C° 0 mm 0 mps 677 mmHg 81%
16:00 -1°C° 0 mm 0 mps 676 mmHg 81%
17:00 -2°C° 0 mm 0 mps 676 mmHg 82%
18:00 -4°C° 0 mm 0 mps 675 mmHg 83%
19:00 -4°C° 0 mm 0 mps 675 mmHg 82%
20:00 -5°C° 0 mm 0 mps 675 mmHg 81%
21:00 -5°C° 0 mm 0 mps 675 mmHg 79%
22:00 -5°C° 0 mm 0 mps 675 mmHg 79%
23:00 -5°C° 0 mm 0 mps 675 mmHg 78%

2 Noviembre, Lunes

Tiempo Temperatura Precipitaciones Viento Presión Humedad
00:00 -5°C° 0 mm 0 mps 674 mmHg 77%
01:00 -6°C° 0 mm 0 mps 674 mmHg 77%
02:00 -6°C° 0 mm 0 mps 674 mmHg 76%
03:00 -6°C° 0 mm 1 mps 674 mmHg 76%
04:00 -6°C° 0 mm 1 mps 674 mmHg 76%
05:00 -6°C° 0 mm 1 mps 674 mmHg 75%
06:00 -6°C° 0 mm 1 mps 674 mmHg 75%
07:00 -4°C° 0 mm 1 mps 674 mmHg 75%
08:00 -3°C° 0 mm 1 mps 674 mmHg 76%
09:00 -1°C° 0 mm 1 mps 674 mmHg 76%
10:00 0°C° 0 mm 1 mps 674 mmHg 75%
11:00 +1°C° 0 mm 1 mps 674 mmHg 75%
12:00 +3°C° 0 mm 1 mps 674 mmHg 74%
13:00 +3°C° 0 mm 1 mps 674 mmHg 76%
14:00 +3°C° 0 mm 1 mps 674 mmHg 79%
15:00 +3°C° 0 mm 1 mps 673 mmHg 81%
16:00 +1°C° 0 mm 1 mps 673 mmHg 79%
17:00 0°C° 0 mm 1 mps 673 mmHg 77%
18:00 -2°C° 0 mm 1 mps 673 mmHg 75%
19:00 -3°C° 0 mm 1 mps 673 mmHg 75%
20:00 -3°C° 0 mm 1 mps 673 mmHg 74%
21:00 -4°C° 0 mm 1 mps 673 mmHg 73%
22:00 -4°C° 0 mm 1 mps 673 mmHg 73%
23:00 -4°C° 0 mm 1 mps 673 mmHg 72%
Mostrar más

Necesitamos Su Consentimiento

Meteoprog y nuestros Proveedores de Servicios pueden almacenar y acceder a sus datos personales como cookies, identificadores de dispositivo u otras tecnologías similares de su dispositivo y procesar dichos datos para personalizar contenido y anuncios, además de ofrecer funciones de redes sociales y analizar el tráfico.

  • Almacenar y/o acceder a información en su dispositivo

    Se puede almacenar o acceder a cookies, identificadores de dispositivo u otra información de su dispositivo para los fines anteriormente indicados.

  • Anuncios y contenido personalizados, medición de anuncios y contenido, percepciones del público, y desarrollo de productos

    Los anuncios y el contenido pueden personalizarse en base a su perfil. Se pueden añadir más datos para personalizar mejor los anuncios y contenidos. Se puede medir el rendimiento de los anuncios y contenidos. Se puede obtener la percepción sobre el público que ha visto los anuncios y contenidos. Dichos datos pueden usarse para desarrollar o mejorar la experiencia del usuario, sistemas y software.

Al hacer clic en ‘Estoy De Acuerdo’ usted permitirá el uso de las cookies, identificadores de dispositivo, balizas web u otras tecnologías similares indicadas. Su configuración puede cambiarse desde el navegador de su dispositivo.

Para ciertos fines, los intereses legítimos pueden ser considerados por encima del consentimiento. Puede leer más sobre ello en nuestra Política de Privacidad y Cookies.